Flag for Trinidad and Tobago Weather past 2 weeks in Scarborough, Trinidad and Tobago

Now
86 °F

Passing clouds.


Feels Like: 91 °F
Forecast: 78 / 86 °F
Wind: 23 mph from East

Location: Crown Pt./ Scarborou

Current Time: May 23, 2015 at 10:01:21 AM

Latest Report: May 23, 2015 at 9:00 AM


Visibility: N/A

Pressure: 30.07 "Hg

Humidity: 59%

Dew point: 70 °F

Location of ScarboroughLocation

Historic Weather in Scarborough — Graph

°F

Scarborough temperature yesterday

Maximum temperature yesterday: 88 °F (at 2:00 PM)
Minimum temperature yesterday: 79 °F (at 1:00 AM)
Average temperature yesterday: 83 °F

Past Weeks' High & Low Weather Summary

 TemperatureHumidityPressure
High90 °F (May 17, 2:00 PM)89% (May 17, 3:00 AM)30.07 "Hg (May 17, 3:00 AM)
Low75 °F (May 9, 6:00 AM)49% (May 16, 2:00 PM)29.92 "Hg (May 13, 4:00 PM)
Average82 °F69%29.99 "Hg
* Reported May 8 9:00 AM — May 23 9:00 AM, Scarborough, Weather by CustomWeather, © 2015

Note: Actual official high and low records may vary slightly from our data, if they occured in-between our weather recording intervals... More about our weather records

Advertising

Scarborough weather history for previous 24 hours

 ConditionsComfort  
Time TempWeatherWind HumidityBarometerVisibility
9:00 AM
Sat, May 23
86 °FPassing clouds.23 mph59%30.07 "HgN/A
8:00 AM84 °FScattered showers. Scattered clouds.14 mph66%30.07 "HgN/A
7:00 AM81 °FPartly sunny.12 mph74%30.04 "HgN/A
6:00 AM81 °FBroken clouds.9 mph74%30.01 "HgN/A
5:00 AM79 °FScattered showers. Passing clouds.8 mph79%30.01 "HgN/A
3:00 AM79 °FPassing clouds.7 mph74%29.98 "HgN/A
2:00 AM81 °FPassing clouds.12 mph70%30.01 "HgN/A
1:00 AM79 °FPassing clouds.7 mph74%30.01 "HgN/A
12:00 AM81 °FScattered showers. Passing clouds.6 mph70%30.04 "HgN/A
11:00 PM
Fri, May 22
81 °FPassing clouds.7 mph70%30.04 "HgN/A
10:00 PM81 °FPassing clouds.9 mph70%30.04 "HgN/A
9:00 PM81 °FPassing clouds.12 mph70%30.04 "HgN/A
8:00 PM82 °FPassing clouds.7 mph70%30.01 "HgN/A
7:00 PM82 °FPassing clouds.13 mph66%30.01 "HgN/A
6:00 PM82 °FPartly sunny.14 mph62%30.01 "HgN/A
5:00 PM84 °FScattered clouds.18 mph62%29.98 "HgN/A
4:00 PM84 °FPassing clouds.18 mph62%29.98 "HgN/A
3:00 PM88 °FPassing clouds.23 mph55%29.98 "HgN/A
2:00 PM88 °FScattered clouds.15 mph52%30.01 "HgN/A
1:00 PM86 °FScattered clouds.16 mph59%30.04 "HgN/A
12:00 PM86 °FPartly sunny.16 mph62%30.04 "HgN/A
11:00 AM86 °FScattered clouds.22 mph62%30.07 "HgN/A
10:00 AM86 °FScattered showers. Scattered clouds.16 mph62%30.07 "HgN/A
Weather by CustomWeather, © 2015

See weather overviewHow to use our weather pages